Погода Бузаубай

Погода Бузаубай : погода сейчас, прогноз погоды и архив. Всё, что Вы хотите узнать о погоде Бузаубай!

Хотите узнать прогноз погоды Бузаубай? Тогда Вам сюда: Погода Бузаубай

Поиск расширенной информации на нашем сайте:

Другие новости

Новости СМИ2

Главная страница сайта

Новости сайта

02.10.2013

Напоминаем, что на нашем новом сайте вы можете получить высокодетализированные прогнозы погоды по пунктам России, СНГ и мира (включающие важные для авиации метеовеличины, такие как направление и скорость ветра, видимость, явления погоды, количество и форма облачности, нижняя и верхняя граница облачности), а также ознакомиться с разнообразными материалами по авиационной метеорологии и подборкой полезных ссылок на эту тему.

Сайт Метеоцентр.Азия посвящён разработке технологий оптимизации авиаметеорологического обслуживания, включая проектирование и перспективное создание нескольких автоматизированных авиаметеорологических систем:
- система выпуска высокодетальных прогностических карт явлений погоды для нижнего воздушного пространства по России и ближнему зарубежью;
- система верификации прогнозов TAF (выпускаемых синоптиками официальных АМСГ РФ и ближнего зарубежья) и AUTOTAF (выпускаемых сайтом Метеоцентр.Азия) - выявление ошибок, онлайн-сопоставление с фактической погодой METAR, автоматическое внесение коррективов в прогнозы при резком отклонении фактической погоды от прогноза, подсчёт оправдываемости прогнозов по элементам и в целом;
- система обработки, анализа и отображения авиаметеорологической информации для применения провайдерами метеорологической информации.


Погода Бузаубай - сегодня

Время (UTC), дата Ветер
(°,м/с) 
Видим.   Явления Облачность Т
(°С)
Тd
(°С)
f(%) Тe
(°С)
Pmin
(гПа)
dP
(гПа)
Po
(мм)
O2
(г/м3)
Тmin Tmax R s Состояние
почвы
15 25.05.17 тихо ()   10 км    3/0 средняя 
[Ac As]
+32.1 +13.1 32 +38  1011.4  -0.6  750  268    +40.1       
18 25.05.17 040 (СВ) н/о    6/0 средняя 
[Ac As]
+28.6 +13 38 +34  1011.1  -0.4  750  271    +40.1       
21 25.05.17 040 (СВ) н/о    8/0 средняя 
[Ac As]
+29 +12.5 36 +34  1011.5  0.4  750  271           
00 26.05.17 060 (СВ) 10 км    6/0 средняя 
[Ac cast]
+28.5 +12.7 38 +33  1012.2  0.7  751  272           
03 26.05.17 040 (СВ) 10 км    3/0 верхняя 
[Ci ing]
+29 +15.7 45 +39  1012.6  0.4  751  270           
06 26.05.17 090 (В) 10 км    4/0 верхняя 
[Cs]
+35.8 +19.8 39 +54  1012.9  0.5  752  263  +28.5         
09 26.05.17 250 (З) 10 км    5/0 верхняя 
[Ci ing]
+37.2 +19.4 35 +54  1012  -0.9  751  262           
12 26.05.17 220 (ЮЗ) 10 км    4/0 верхняя 
[Ci ing]
+36 +16.4 31 +47  1011.3  -0.7  750  264           
18 26.05.17 270 (З) н/о    ясно 
+24.5 +8 35 +25  1011.4  -0.2  750  276    +38.1       
21 26.05.17 360 (С) н/о    ясно 
+23.8 +8.5 38 +24  1011.4  -0.2  750  277           
00 27.05.17 360 (С) 10 км    ясно 
+22.4 +8.2 40 +22  1011.2  -0.1  750  278           
06 27.05.17 060 (СВ) 10 км    ясно 
+30.2 +16.3 43 +41  1012.1  0.7  751  269  +22.4         
09 27.05.17 010 (С) 10 км    ясно 
+33.5 +15.4 34 +43  1012.4  0.4  751  266           
12 27.05.17 220 (ЮЗ) 10 км    ясно 
+35 +15.1 31 +44  1011.9  -0.6  751  265           
15 27.05.17 тихо ()   10 км    ясно 
+33.6 +15 33 +42  1011.2  -0.6  750  266    +36.2       
18 27.05.17 010 (С) н/о    ясно 
+28.4 +11.9 36 +32  1010.9  -0.4  750  271    +36.2       
21 27.05.17 030 (СВ) н/о    ясно 
+24 +9.3 39 +24  1010.4  -0.6  749  276           
00 28.05.17 040 (СВ) 10 км    3/0 средняя 
[Ac lent]
+22.8 +8.8 41 +23  1010.8  0.3  750  277           
06 28.05.17 090 (В) 10 км    3/0 верхняя 
[Ci fib]
+33.7 +18 39 +48  1011.3  0.2  750  265  +22.8         
09 28.05.17 тихо ()   10 км    ясно 
+37.5 +18.6 33 +53  1010.2  -0.8  750  261           
12 28.05.17 090 (В) 10 км    ясно 
+39.2 +18 29 +54  1009.3  -0.8  749  260           
15 28.05.17 220 (ЮЗ) 10 км    ясно 
+33 +14.3 32 +41  1007.2  -2.3  747  266    +40.3       
18 28.05.17 060 (СВ) н/о    ясно 
+29.2 +12.1 35 +33  1005.4  -1.9  746  269    +40.3       
21 28.05.17 250 (З) н/о    ясно 
+25.3 +9.9 38 +26  1005  -0.6  745  273           
00 29.05.17 270 (З) 10 км    ясно 
+21.2 +7 40 +21  1004.8  -0.3  745  277           
Время (UTC), дата Ветер
(°,м/с) 
Видим.   Явления Облачность Т
(°С)
Тd
(°С)
f(%) Тe
(°С)
Pmin
(гПа)
dP
(гПа)
Po
(мм)
O2
(г/м3)
Тmin Tmax R s Состояние
почвы

Для получения пояснительной информации подведите курсор к названию столбца.

ПОГОДА Бузаубай - архив

Всё, что Вы хотите узнать о погоде Бузаубай - удобно и подробно!

Выберите нужную дату (начиная с 1 января 2015* года) и нажмите кнопку "Найти".
Будут отображены архивные сводки погоды по пункту Бузаубай, начиная с указанной даты.


Отображать данные в формате CSV (для использования в таблицах Excel)


Внимание! Наш архив погоды предназначен исключительно для личного некоммерческого использования в познавательных целях. Если Вам необходимы официальные справки о состоянии погоды (для производственных, юридических, коммерческих и т.п. целей), обращайтесь в органы Росгидромета.

*Примечание: данная дата относится к архиву по метеостанциям СССР (Россия, СНГ, Балтия).
Архив по метеостанциям Зарубежной Европы и Азии (кроме Китая) хранится 10 дней, по другим регионам земного шара (Китай, Африка, Америка, Австралия, Океания) - 1 день.

Бузаубай - район местоположения метеостанции


Название, широта, долгота, высота метеостанции:
Бузаубай 41.8°ш. 62.5°д. 98 м над ур. моря [Узбекистан]

Дополнительная информация

В oтличие oт бoльшинства пoгoдных сайтoв мы публикуем пoдрoбную метеoинфoрмацию в детальнoм прoфессиoнальнoм фoрмате.

Характеристики температуры и влажнoсти вoздуха измеряются на высoте 2 м в тени вдали oт зданий и деревьев.
Скoрoсть ветра измеряется на высoте 10 м (на урoвне рoста челoвека скoрoсть ветра ниже в 1.5-2 раза). Если метеoстанция нахoдится в гoрoде или в лесу, тo скoрoсть ветра занижена на 2-4 м/с пo сравнению с oткрытым местoм. Скoрoсть ветра над акватoриями крупных рек и oзёр, а также на вершинах хoлмoв на 2-5 м/с выше, чем в oбычных услoвиях.
Атмoсфернoе давление в разных тoчках местнoсти мoжет значительнo oтличаться oт давления на метеoстанции, в зависимoсти oт услoвий рельефа (при пoдъёме на 10 м давление пoнижается примернo на 1 мм рт.ст.).